Tracking 22779 objects as of 12-Apr-2021
HD Live streaming from Space Station
objects crossing your sky now

FLOCK 1C 1

Track FLOCK 1C 1 now!
10-day predictions
FLOCK 1C 1 is classified as:


NORAD ID: 40027
Int'l Code: 2014-033T
Perigee: 593.6 km
Apogee: 612.5 km
Inclination: 98.0 °
Period: 96.6 minutes
Semi major axis: 6974 km
RCS: Unknown
Launch date: June 19, 2014
Source: United States (US)
Launch site: Orenburg, Russia (OREN)
aabbcc
Your satellite tracking list
Your tracking list is empty




NASA's NSSDC Master Catalog

Two Line Element Set (TLE):
1 40027U 14033T   21101.77651518  .00000899  00000-0  97597-4 0  9996
2 40027  97.9635  38.9889 0013528  38.7866 321.4320 14.90645109369615
Source of the keplerian elements: AFSPC